Regional Weather Roundup
Issued by NWS Pendleton, OR

Home | Current Version | Previous Version | Text Only | Print | Product List | Glossary On
Versions: 1 2 3 4 5 6 7 8 9 10 11 12 13 14 15 16 17 18 19 20 21 22 23 24 25 26 27 28 29 30 31 32 33 34 35 36 37 38 39 40 41 42 43 44 45 46 47 48 49 50
000
ASUS46 KPDT 110125
RWRPDT
PENDLETON REGIONAL WEATHER ROUNDUP
NATIONAL WEATHER SERVICE PENDLETON OREGON
600 PM PDT THU JUL 10 2014

NOTE: FAIR INDICATES FEW OR NO CLOUDS BELOW 12,000 FEET WITH NO
SIGNIFICANT WEATHER AND/OR OBSTRUCTIONS TO VISIBILITY.

# INDICATES UNOFFICIAL STATION AND DATA

WAZ520-110210-
EAST SLOPES OF WASHINGTON CASCADES

CITY            SKY/WX      TMP DP  RH  WIND    PRES   REMARKS
#CLE ELUM HS    N/A         82  44  26  W10     29.81S
#CLE ELUM LAKE  N/A         82  46  28  CALM    29.75S
#CLIFFDEL 2NW   N/A         83  35  18  W7G24   N/A
#GLENWOOD       N/A         86  59  40  S7      29.71F
#MANASTASH CYN  N/A         83  32  16  CALM    29.86S
#NELSON         N/A         82  49  32  W1      29.75S
#NELSON 3SW     N/A         79  42  27  SE1     29.94S
#NILE           N/A         87  35  16  W7      29.01S
#RONALD 2NW     N/A         84  45  26  E2      29.79S
#TROUT LAKE 1NE N/A         85  56  37  W8      29.72F
$$

WAZ521-110210-
SIMCOE HIGHLANDS

CITY            SKY/WX      TMP DP  RH  WIND    PRES   REMARKS
#BICKLETON HS   N/A         86  18   8  SE5     29.91F
#CENTERVILLE 4W N/A         88  49  26  NW14    29.59F
#CENTERVILLE 1SWN/A         89  50  26  W12     29.68F
#GOLDENDALE 1S  N/A         91  53  28  W5      29.78F HX 89
#GOLDENDALE 5WNWN/A         89  54  31  SW13    29.69F
#GOODNOE HILLS  N/A         94  37  14  W18     29.71F HX 90
#LYLE 6NE       N/A         85  55  36  SW8     29.71F
$$

WAZ026-110210-
KITTITAS VALLEY

CITY            SKY/WX      TMP DP  RH  WIND    PRES   REMARKS
ELLENSBURG AP   SUNNY       90  42  19  NW20    29.81S HX 86
#ELLENSBURG 3NE N/A         86  43  22  N8      29.81F
#ELLENSBURG 1E  N/A         87  32  14  CALM    N/A
#KITTITAS 3S    N/A         84  47  28  NW7     29.68F
#THORP 6N       N/A         83  40  22  NW22G30 29.74S
$$

WAZ027-110210-
YAKIMA VALLEY

CITY            SKY/WX      TMP DP  RH  WIND    PRES   REMARKS
YAKIMA AIRPORT  SUNNY       97  32  10  E6      29.75F HX 92
YAKIMA-VAGABOND SUNNY       95  27   9  W5      29.77F HX 90
#COWICHE 1N     N/A         89  37  16  CALM    29.95F
#DONALD 2NE     N/A         99  28   8  N1      30.06F HX 94
#GRANDVIEW      N/A         90  42  19  CALM    29.69F HX 86
#MABTON         N/A         92  39  16  CALM    29.72F HX 88
#MOXEE 2E       N/A         94  13   5  SW2     29.63F HX 89
#NACHES 2SW     N/A         94  52  24  CALM    29.83S HX 91
#OUTLOOK DOT    N/A         N/A N/A N/A E5      N/A
#SELAH 8E       N/A         94  26   9  W5      N/A    HX 89
#TERRACE HTS    N/A         94  36  13  S1      29.64F HX 89
#TOPPENISH      N/A         91  48  23  E2      29.60F HX 88
#WAPATO 4NE     N/A         99  28   8  N1      30.06F HX 94
#W YAKIMA       N/A         96  36  12  CALM    29.68F HX 91
#WHITE SWAN 5E  N/A         92  46  21  E7      29.68F HX 88
#WILEY CITY 3W  N/A         89  28  11  CALM    29.76F
$$

WAZ028-110210-
LOWER COLUMBIA BASIN...WASHINGTON

CITY            SKY/WX      TMP DP  RH  WIND    PRES   REMARKS
PASCO           PTCLDY      96  40  14  VRB3    29.72F HX 91
PROSSER AWOS    N/A         93  46  20  SE1     29.75F HX 89
RICHLAND AWOS   PTCLDY      95  34  12  E6      29.72F HX 90
#BASIN CITY 5SW N/A         89  58  35  CALM    29.73F
#BENTON CITY    N/A         93  45  19  CALM    29.59F HX 89
#CONNELL 5N     N/A         95  40  15  W1      29.69F HX 91
#CONNELL 5NW    N/A         92  42  18  W2      29.65F HX 88
#ELTOPIA 6NW    N/A         89  52  28  S1      28.73F
#KENNEWICK 3S   N/A         93  46  20  CALM    29.70F HX 89
#PATERSON       N/A         95  45  18  CALM    29.67F HX 91
#PROSSER        N/A         97  29   9  NW2     29.68F HX 92
#SAGEMOOR 2W    N/A         92  54  28  CALM    29.56F HX 90
#TOUCHET 2S     N/A         90  57  33  CALM    29.68F HX 89
#WEST PASCO     N/A         98  47  18  N2      29.69F HX 94
$$

WAZ029-110210-
FOOTHILLS OF THE BLUES...WASHINGTON

CITY            SKY/WX      TMP DP  RH  WIND    PRES   REMARKS
WALLA WALLA AP  PTCLDY      94  28  10  SW9     29.78F HX 89
#COLLEGE PLACE  N/A         104 39  11  SW2     29.74F HX 99
#DAYTON SCHOOL  N/A         91  35  14  S1      29.79F HX 87
#LOWDEN 2SE     N/A         94  47  20  W2      29.69F HX 90
#PLEASANT VIEW 1N/A         92  38  15  SW1     29.73F HX 88
#PRESCOTT       N/A         93  38  15  W2      29.67F HX 89
#SUDBURY        N/A         94  N/A N/A NW6     N/A
#WHITMAN COLLEGEN/A         93  35  13  SW3     29.74F HX 89
#WAITSBURG 8N   N/A         93  31  11  CALM    29.62F HX 88
#WALLA WALLA 5E N/A         94  -7   2  W6      N/A    HX 90
#WALLA WALLA U  N/A         95  36  13  CALM    29.69F HX 90
#WHITMAN MISSIONN/A         94  42  17  SW2     29.70F HX 90
$$

WAZ030-110210-
BLUE MOUNTAINS...WASHINGTON

CITY            SKY/WX      TMP DP  RH  WIND    PRES   REMARKS
$$

ORZ009-041-WAZ024-110210-
COLUMBIA RIVER GORGE

CITY            SKY/WX      TMP DP  RH  WIND    PRES   REMARKS
HOOD RIVER AP   PTCLDY      84  52  33  W3      29.78F
THE DALLES AP   SUNNY       90  51  26  N21G26  29.72F HX 87
#ARLINGTON AIRPON/A         95  37  13  W6      N/A    HX 90
#ARLINGTON HS   N/A         96  41  15  E6      29.58F HX 92
#CELILO DOT     N/A         95  57  28  N3      N/A    HX 94
#MOSIER 1S      N/A         85  40  20  W8      29.83F
#MURDOCK        N/A         88  54  31  NW18G28 29.73F
#RUFUS DOT      N/A         92  53  27  N12     N/A    HX 90

$$

ORZ510-110210-
NORTH CENTRAL OREGON

CITY            SKY/WX      TMP DP  RH  WIND    PRES   REMARKS
#CHENOWITH 1W   N/A         82  47  29  W23     N/A
#COW CYN RST AREN/A         90  82  77  W7      N/A    HX 111
#GRASS VALLEY 1SN/A         90  41  18  N7      29.74F HX 86
#KENT DOT       N/A         88  37  16  NW10    N/A
#MAUPIN SCHOOL  N/A         95  40  15  N5      29.77F HX 91
#MORO SCHOOL    N/A         88  50  27  NW12    29.83F
#SHANIKO 5WSW   N/A         89  34  14  W10     N/A
#SHANIKO 4NW    N/A         86  21   9  N9      29.93F
#TYGH VALLEY 2NEN/A         95  42  16  N7      29.69F HX 91
#WAPANITIA AIRPON/A         93  40  16  NE2     29.71F HX 89
#WASCO DOT      N/A         91  51  26  W9      N/A    HX 88
#WASCO 5NE      N/A         94  42  17  W5      29.71F HX 90
$$

ORZ511-110210-
CENTRAL OREGON

CITY            SKY/WX      TMP DP  RH  WIND    PRES   REMARKS
BEND AIRPORT    PTCLDY      91  27  10  N16     29.91R HX 87
REDMOND AIRPORT PTCLDY      92  24   9  N14     29.86F HX 88
#BEND 6E        N/A         88  25  10  CALM    29.60S
#BEND 1SW       N/A         87  -12  2  W5      N/A
#BEND-AWBREY    N/A         92  32  12  S6      29.71R HX 88
#BEND-KIM LN    N/A         89  30  12  N3      29.87S
#CULVER         N/A         91  35  14  N2      29.81F HX 87
#LAKE BILLY CHINN/A         91  11   5  NE12    29.85F HX 87
#POWELL BUTTE   N/A         88  38  17  N6      29.57R
#PRINEVILLE 3N  N/A         87  45  23  CALM    29.65F


ORZ509-110210-
EAST SLOPES OF OREGON CASCADES

CITY            SKY/WX      TMP DP  RH  WIND    PRES   REMARKS
#BLUE BOX PASS  N/A         77  18  11  W3      N/A
#BLACK BUTTE RNCN/A         84  46  27  CALM    29.70F
#CAMP SHERMAN   N/A         89  38  17  VRB5    29.75R
#LA PINE DOT    N/A         87  27  11  W8      N/A
#LA PINE 4NW    N/A         86  46  25  N2      29.75R
#LAVA BUTTE DOT N/A         88  41  19  SW3     N/A
#SISTERS AIRPOR N/A         90  49  25  N6      29.90F HX 87
#SISTERS ODOT   N/A         88  N/A N/A SE7     N/A
#SISTERS 3N     N/A         89  32  13  CALM    29.92S
#SUNRIVER       N/A         89  40  18  SW2     29.60S
#SUNRIVER AP    N/A         88  41  19  NW3     29.68S
#SUTTLE LK DOT  N/A         79  47  32  W21G28  N/A
#TUMALO 3W      N/A         87  30  13  N16     29.59F
#WANOGA BUTTE D N/A         76  32  20  W7      N/A

$$

ORZ044-110210-
LOWER COLUMBIA BASIN...OREGON

CITY            SKY/WX      TMP DP  RH  WIND    PRES   REMARKS
HERMISTON       SUNNY       95  35  12  CALM    29.73F HX 90
#BOARDMAN 3W    N/A         93  54  27  NE3     29.38F HX 91
#BOARDMAN 8SW   N/A         96  46  18  N3      29.69F HX 92
#IONE SCHOOL    N/A         95  21   7  W3      29.75F HX 90
#IRRIGON 4NW    N/A         97  43  16  NW3     N/A    HX 93
#UMATILLA SCHOOLN/A         100 58  25  NW1     29.81F HX 100
#UMATILLA       N/A         97  45  17  CALM    29.69F HX 93
$$

ORZ507-110210-
NORTHERN FOOTHILLS OF THE BLUES

CITY            SKY/WX      TMP DP  RH  WIND    PRES   REMARKS
PENDLETON AIRPT SUNNY       93  15   6  W8      29.78F HX 89
#ADAMS 3WNW     N/A         92  16   6  CALM    29.69F HX 88
#ATHENA         N/A         91  31  12  W1      29.72F HX 87
#HELIX SCHOOL   N/A         91  22   8  W1      29.70F HX 87
#HELIX 3N       N/A         88  38  17  N7      29.79F
#M-F FERNDALE   N/A         98  54  23  CALM    29.75F HX 96
#M-F GROVE ELEM N/A         92  36  14  CALM    29.76F HX 88
#PDT AQUATIC CTRN/A         96  33  11  W7      29.80F HX 91
#PENDLETON DNTN N/A         92  44  19  NW1     29.75S HX 88
#PDT SUNRIDGE   N/A         94  21   7  NW3     29.77F HX 89
#PENDLETON 7NW  N/A         91  46  21  CALM    32.03R HX 87
#PILOT ROCK     N/A         91  37  15  N2      29.82F HX 87
#TUTUILLA       N/A         93  31  11  W7      29.65F HX 88
#UMAPINE 2E     N/A         93  48  22  CALM    29.71F HX 90
#WESTON SCHOOL  N/A         90  26  10  N1      29.79F HX 86

$$

ORZ508-110210-
SOUTHERN FOOTHILLS OF THE BLUES

CITY            SKY/WX      TMP DP  RH  WIND    PRES   REMARKS
#AJAX           N/A         N/A N/A N/A N7      29.88F
#CONDON SCHOOL  N/A         89  17   7  NW7     29.84F
#FOSSIL SCHOOL  N/A         91  22   8  N7      29.83F HX 87
#HEPPNER EOC    N/A         91  24   9  N3      29.66F HX 87
#HEPPNER 4NE    N/A         87  28  12  N5      29.71F
#LEXINGTON 2SE  N/A         95  38  14  CALM    29.75F HX 91
#MIKKALO        N/A         94  21   7  W7      29.83F HX 89
#OLEX 4N        N/A         95  18   6  CALM    29.75F HX 90
#RUGGS 5NE      N/A         94  -7   2  NW2     30.07S HX 90
#RUGGS 2SW      N/A         89  23   9  NE10    29.74F

$$

ORZ502-503-110210-
BLUE MOUNTAINS

CITY            SKY/WX      TMP DP  RH  WIND    PRES   REMARKS
MEACHAM         PTCLDY      82  36  19  VRB5    29.94F
#BATTLE MTN DOT N/A         78  50  38  N3      N/A
#HARDMAN 10S    N/A         84  26  12  N6      30.02S
#HEPPNER 15SE   N/A         81  29  15  W6      29.88F
#LADD CYN SMT   N/A         87  40  19  NW8     N/A
#LADD CREEK ODOTN/A         89  52  28  W5      N/A
#N POWDER DOT   N/A         84  53  34  NE13    N/A
#TOLLGATE 9W    N/A         82  38  21  NW5     N/A
#TROY SCHOOL    N/A         95  34  12  N6      29.51F HX 90
#UKIAH          N/A         85  38  19  N6      29.76F
#WESTON 4E      N/A         85  35  17  SW3     29.67F
$$

ORZ505-110210-
JOHN DAY BASIN

CITY            SKY/WX      TMP DP  RH  WIND    PRES   REMARKS
JOHN DAY        SUNNY       93  27   9  NW14    29.89F HX 88
#JOHN DAY KJDY  N/A         96  62  33  CALM    29.73F HX 97
#MONUMENT HS    N/A         95  32  11  VRB10   29.55F HX 90
#MT. VERNON 5SE N/A         90  31  12  W3      29.86F HX 86
#WINLOCK        N/A         88  31  13  SW2     29.96F
$$

ORZ506-110210-
OCHOCO AND JOHN DAY HIGHLANDS

CITY            SKY/WX      TMP DP  RH  WIND    PRES   REMARKS
#BUCK CREEK DOT N/A         84  55  37  S2      N/A
#HORSE RIDGE DO N/A         88  26  11  NW12    N/A
#KEYES SMT DOT  N/A         85  16   8  NW8     N/A
#PAULINA SCHOOL N/A         91  29  11  NW2     29.91S HX 87
#PINE MTN OBS   N/A         74  29  19  NW7     N/A
#PRAIRIE CITY   N/A         90  34  14  N1      29.59S HX 86
#SENECA 9NW     N/A         88  36  16  CALM    29.72F
$$

ORZ049-110210-
GRANDE RONDE VALLEY

CITY            SKY/WX      TMP DP  RH  WIND    PRES   REMARKS
LA GRANDE       PTCLDY      90  43  20  N12     29.84S HX 86
#COVE           N/A         90  55  31  NW3     29.78S HX 88
#COVE SCHOOL    N/A         88  47  24  NW1     29.85S
#COVE 6NW       N/A         85  49  29  N6      29.73S
#ELGIN 3N       N/A         90  42  19  NW2     29.60S HX 86
#ELGIN 1E       N/A         89  45  22  W1      N/A
#ISLAND CITY 4N N/A         88  51  28  CALM    29.65S
#LADD CYN DOT   N/A         89  48  24  NW7     N/A
#UNION 1S       N/A         91  47  22  N1      29.59S HX 88
$$

ORZ050-110210-
WALLOWA COUNTY

CITY            SKY/WX      TMP DP  RH  WIND    PRES   REMARKS
JOSEPH AIRPORT  PTCLDY      86  36  17  NW8     29.95S
#ENTERPRISE HS  N/A         87  44  22  N7      29.90F
#IMNAHA SCHOOL  N/A         96  25   8  CALM    29.65S HX 91
#IMNAHA 10S     N/A         95  40  15  N1      29.81S HX 91
#JOSEPH 3N      N/A         85  44  24  NW13    29.95F
#LOSTINE        N/A         86  38  18  NW5     29.50R
#MT HOWARD 8000 N/A         67  35  30  NW5     30.24F
#PROMISE 1S     N/A         83  38  20  E7      29.83F
#SHEEP RDG 7000 N/A         69  37  31  CALM    29.71F
#WALLOWA SCHOOL N/A         89  35  15  NW2     30.57S



$$



USA.gov is the U.S. government's official web portal to all federal, state and local government web resources and services.